This is the latest recevied weather packets stored in our database for station/object VR2HK-13. If no packets are shown the sender has not sent any weather packets the latest 1 day(s).
| Time | Temp. | Humidity | Pressure | Rain* | Wind** | Luminosity | Snow |
|---|---|---|---|---|---|---|---|
| 1778008222 | 21.11° C | 85% | 1012.4 hPa | 0 mm | 1.79 m/s, 257° | - | - |
| 1778008201 | 21.11° C | 85% | 1012.3 hPa | 0 mm | 2.24 m/s, 243° | - | - |
| 1778007913 | 21.11° C | 86% | 1012.2 hPa | 0 mm | 1.79 m/s, 36° | - | - |
| 1778007901 | 21.11° C | 86% | 1012.2 hPa | 0 mm | 1.79 m/s, 15° | - | - |
| 1778007603 | 21.11° C | 86% | 1012.3 hPa | 0 mm | 0.89 m/s, 68° | - | - |
| 1778007601 | 21.11° C | 86% | 1012.2 hPa | 0 mm | 0.89 m/s, 93° | - | - |
| 1778007301 | 21.11° C | 86% | 1012.3 hPa | 0 mm | 0.89 m/s, 204° | - | - |
| 1778007292 | 21.11° C | 86% | 1012.3 hPa | 0 mm | 1.34 m/s, 214° | - | - |
| 1778007000 | 21.11° C | 86% | 1012.4 hPa | 0 mm | 2.68 m/s, 333° | - | - |
| 1778006982 | 21.11° C | 86% | 1012.3 hPa | 0 mm | 2.68 m/s, 11° | - | - |
| 1778006700 | 21.11° C | 86% | 1012.3 hPa | 0 mm | 0.45 m/s, 282° | - | - |
| 1778006672 | 21.11° C | 86% | 1012.4 hPa | 0 mm | 0.45 m/s, 360° | - | - |
| 1778006401 | 21.11° C | 86% | 1012.4 hPa | 0 mm | 1.79 m/s, 302° | - | - |
| 1778006362 | 21.11° C | 86% | 1012.4 hPa | 0 mm | 2.68 m/s, 252° | - | - |
| 1778006100 | 21.11° C | 86% | 1012.5 hPa | 0 mm | 2.68 m/s, 251° | - | - |
| 1778006051 | 21.11° C | 86% | 1012.5 hPa | 0 mm | 0.45 m/s, 288° | - | - |
| 1778005801 | 21.11° C | 87% | 1012.5 hPa | 0 mm | 0.45 m/s, 269° | - | - |
| 1778005742 | 21.11° C | 87% | 1012.5 hPa | 0 mm | 0 m/s | - | - |
| 1778005501 | 21.11° C | 87% | 1012.6 hPa | 0 mm | 0.45 m/s, 245° | - | - |
| 1778005432 | 21.11° C | 87% | 1012.6 hPa | 0 mm | 0 m/s | - | - |
| 1778005200 | 21.11° C | 87% | 1012.6 hPa | 0 mm | 1.34 m/s, 323° | - | - |
| 1778005122 | 21.11° C | 87% | 1012.6 hPa | 0 mm | 1.34 m/s, 208° | - | - |
| 1778004900 | 21.11° C | 87% | 1012.5 hPa | 0 mm | 0.89 m/s, 240° | - | - |
| 1778004812 | 21.11° C | 87% | 1012.5 hPa | 0 mm | 1.79 m/s, 31° | - | - |
| 1778004601 | 21.11° C | 87% | 1012.5 hPa | 0 mm | 0.89 m/s, 219° | - | - |
* Rain latest hour (hover to see other rain measurements)
** Current wind speed in m/s (hover to see current wind gust speed)